STARLINK-1564, 46058

Orbit data source: Space-Track

STARLINK-1564, 46058 is a payload satellite owned by SpaceX/Seattle (US) in LEO that was launched on Fri, 07 Aug 2020 UTC via an FALCON 9 launch vehicle from the Air Force Eastern Test Range (AFETR). Payloads include a variety of satellites, spacecraft, and rockets equipped with specific instruments for various scientific and technological missions. These include communications satellites like Starlink; space stations such as the ISS; scientific satellites like the Hubble; Earth observation satellites from companies like Planet Labs, Umbra, and HawkEye 360; GPS; miniature CubeSats for education and research; and military/defense satellites.

Loading next visibility...
STARLINK-1564 details
Identifier
46058, 2020-055AH
Orbit
LEO
Last TLE update23 hours ago
Origin
Flag of USSpaceX/Seattle (US)
ManufacturerSpaceX/Seattle
MissionOperational Commercial Communications
Bus & MotorSTARLINK, Unknown motor
Mass260 kg wet, ~248 kg dry
Launch date (UTC)
2020-08-07 (4 years ago)
Launch vehicle
FALCON 9
Launch site
Air Force Eastern Test Range (AFETR)
Object type
Payload
Rocket body
Debris
Shape & HBRBox + 1 Pan, 8.86 m
Radar Cross Section13.562 m², Large (>1 m²)

Expand to show TLE details & history

TLE from 23 hours ago
0 STARLINK-1564
1 46058U 20055AH  24347.40617869  .00017559  00000-0  11947-2 0  9997
2 46058  53.0543 347.4602 0001936  91.4912 268.6299 15.06402382240858
Epoch: 2024-12-12T09:44Z
Definitive object data (Epoch: 2024-12-12T09:44:53.838Z)
Latitude-0.00002°
Longitude119.64889°
Altitude548.116 km
Speed7.589 km/s
True Right ascension23h 09m 50s
True Declination0° 00' 00"
Sunlit
Object was in daylight at TLE epoch
Visualization TLE readout
Latitude-51.1426°
Longitude3.44747°
Altitude566.073 km
Speed7.577 km/s
Apparent Right ascension17h 40m 49s
Apparent Declination-50° 13' 37"
Sunlit
Object is in daylight
Visualization observer readout
Local Sidereal Time07:40:10
Azimuth126.252° SE
Elevation-66.752°
Doppler factor1
Orbital elements
Apogee altitude548.816 km
Perigee altitude546.134 km
Semi-major axis6,925.612 km
Eccentricity0.0001936
Inclination53.0543°
RAAN347.4602°
Arg. of periapsis91.4912°
True anomaly268.60772°
Mean anomaly268.6299°
Eccentric anomaly268.61881°
Mean motion3.76579 °/min
BSTAR0.0011947
Orbital period95.6 mins
Loading maneuver chart data...
Loading historical data...
Loading historical data...
Loading historical data...
Loading historical data...
Loading historical data...
Loading historical data...
Loading historical data...

STARLINK-1564 Visibility forecast

Observer location: undefined°, undefined

Span
Click to sort rows by Start time (UTC) header in descending order
Start Az.
Max El. time (UTC)
Max El. Az.
Max El.
End time (UTC)
End Az.
7 mins2024-12-13 10:09:26.965Z297.973° NW2024-12-13 10:12:26.965Z229.953° WSW38.674°2024-12-13 10:16:26.965Z148.016° SSE
5 mins2024-12-14 01:43:26.965Z173.616° S2024-12-14 01:45:26.965Z128.717° SE25.277°2024-12-14 01:48:26.965Z74.568° E
6 mins2024-12-14 03:22:26.965Z266.237° W2024-12-14 03:24:26.965Z313.767° NW33.491°2024-12-14 03:28:26.965Z38.527° NE
5 mins2024-12-14 08:24:26.965Z338.663° N2024-12-14 08:26:26.965Z25.829° NE28.941°2024-12-14 08:29:26.965Z89.543° E
|